User: anonymous   Login
Location: Spradlin Observatory
(33.4706°N, 86.3221°W)
Time: 18:11:30
(UTC-05:00)
Language:

COSMOS 2406 - Orbit

View from above orbital plane
View from above orbital plane
View from above satellite
View from above satellite

Ground track
Ground track

The orbit data is extracted from the following two-line orbital elements,

1 28352U 04021A   15247.56077178  .00000352  00000-0  22036-3 0  9993
2 28352  71.0025  45.0430 0015092 354.0826  67.4592 14.11418200578902
Epoch (UTC): 04 September 2015 13:27:30
Eccentricity: 0.0015092
inclination: 71.0025°
perigee height: 843 km
apogee height: 865 km
right ascension of ascending node: 45.0430°
argument of perigee: 354.0826°
revolutions per day: 14.11418200
mean anomaly at epoch: 67.4592°
orbit number at epoch: 57890

The dashed part of the orbit path shows where the satellite is in the earth's shadow,  

DLR